[[{"header":{"parameterUnit":"m.s-1","parameterCategory":1,"la1":30.2992,"la2":30.254,"lo1":-89.0895,"lo2":-89.0443,"dy":0.0025,"dx":0.0025,"nx":19,"ny":19,"refTime":"2026-05-14T21:00:00:Z","depth":0,"parameterNumber":2,"parameterNumberName":"U-component_of_WINDS"},"data":[0,0,0,-3.0913,-3.0913,-3.0882,-3.0882,-3.0864,-3.0864,0,0,0,0,0,0,0,0,0,0,0,-3.0936,-3.0936,-3.0913,-3.0913,-3.0882,-3.0882,-3.0864,-3.0864,0,0,0,0,0,0,0,0,0,0,0,-3.0936,-3.0936,-3.0937,-3.0913,-3.0882,-3.0882,-3.0864,-3.0879,0,0,0,0,0,0,0,0,0,0,-3.0906,-3.094,-3.0936,-3.0937,-3.0913,-3.0882,-3.0882,-3.088,-3.0879,-3.0888,0,-3.09,0,-3.0882,-3.0864,-3.0864,0,0,0,-3.0903,-3.0941,-3.0921,-3.0937,-3.0913,-3.0882,-3.0893,-3.0879,-3.0877,-3.0886,-3.0899,-3.0898,-3.0882,-3.0864,-3.0864,-3.0954,-3.0954,0,0,-3.0904,-3.0937,-3.0922,-3.0921,-3.0927,-3.0894,-3.0892,-3.0878,-3.0894,-3.0899,-3.0897,-3.0881,-3.0864,-3.0864,-3.0953,-3.0954,0,0,0,-3.0916,-3.0939,-3.0919,-3.0922,-3.0915,-3.0894,-3.0891,-3.0894,-3.0885,-3.0897,-3.0881,-3.0864,-3.0864,-3.0952,-3.0953,-3.103,0,0,0,-3.0917,-3.0946,-3.092,-3.094,-3.0916,-3.0904,-3.0909,-3.0886,-3.0883,-3.0881,-3.0864,-3.0864,-3.0951,-3.0952,-3.1026,-3.106,0,0,0,-3.0933,-3.0948,-3.0948,-3.0942,-3.093,-3.0904,-3.0893,-3.0885,-3.0874,-3.0864,-3.0864,-3.095,-3.0952,-3.1022,-3.1054,-3.1093,0,0,0,-3.096,-3.1016,-3.095,-3.1006,-3.093,-3.0953,-3.0893,-3.0907,-3.0908,-3.0864,-3.0951,-3.0953,-3.1021,-3.105,-3.109,-3.1132,-3.1153,0,0,-3.1049,-3.1028,-3.1058,-3.0998,-3.1041,-3.0955,-3.1008,-3.0976,-3.0945,-3.0952,-3.0954,-3.1027,-3.1053,-3.1093,-3.1262,-3.1279,0,0,0,-3.1098,-3.112,-3.1124,-3.1127,-3.1106,-3.109,-3.1047,-3.1036,-3.1041,-3.0956,-3.1052,-3.1066,-3.1088,-3.1106,-3.1121,-3.1137,-3.0963,-3.0963,-3.0963,-3.1269,-3.1227,-3.1275,-3.123,-3.1234,-3.1191,-3.119,-3.1167,-3.1122,-3.1146,-3.1147,-3.1255,-3.1279,-3.1289,-3.1307,-3.1167,-3.1168,-3.1168,-3.1168,-3.1394,-3.1419,-3.1361,-3.1386,-3.1342,-3.1363,-3.1324,-3.1292,-3.1305,-3.125,-3.1267,-3.121,-3.1309,-3.1322,-3.1173,-3.1173,-3.1172,-3.1171,-3.1171,-3.15,-3.1505,-3.1492,-3.1493,-3.1499,-3.1451,-3.1467,-3.1426,-3.1387,-3.1404,-3.1401,-3.14,-3.1393,-3.1406,-3.1407,-3.1407,-3.1407,-3.1408,-3.1408,-3.1615,-3.1598,-3.1616,-3.16,-3.1598,-3.1589,-3.1549,-3.1545,-3.153,-3.1498,-3.1498,-3.1452,-3.1328,-3.1297,-3.1413,-3.1412,-3.1412,-3.1411,-3.1411,-3.1755,-3.1717,-3.1746,-3.1744,-3.1722,-3.1731,-3.168,-3.1677,-3.1667,-3.1677,-3.1627,-3.1543,-3.1518,-3.1506,-3.148,-3.1637,-3.1637,-3.1637,-3.1637,-3.1844,-3.1828,-3.1849,-3.1848,-3.1843,-3.18,-3.1834,-3.1804,-3.1767,-3.1759,-3.1731,-3.1693,-3.1683,-3.1664,-3.1648,-3.1623,-3.1813,-3.1814,-3.1814,-3.1927,-3.1909,-3.1946,-3.191,-3.1891,-3.1876,-3.1907,-3.1908,-3.1858,-3.182,-3.1752,-3.1744,-3.1683,-3.1666,-3.1624,-3.1601,-3.1554,0,0]},{"header":{"parameterUnit":"m.s-1","parameterCategory":1,"la1":30.2992,"la2":30.254,"lo1":-89.0895,"lo2":-89.0443,"dy":0.0025,"dx":0.0025,"nx":19,"ny":19,"refTime":"2026-05-14T21:00:00:Z","depth":0,"parameterNumber":3,"parameterNumberName":"V-component_of_WINDS"},"data":[0,0,0,4.2351,4.235,4.2306,4.2305,4.2246,4.2245,0,0,0,0,0,0,0,0,0,0,0,4.2364,4.2364,4.2351,4.235,4.2306,4.2305,4.2246,4.2245,0,0,0,0,0,0,0,0,0,0,0,4.2364,4.2364,4.2363,4.2349,4.2306,4.2305,4.2246,4.228,0,0,0,0,0,0,0,0,0,0,4.2323,4.2336,4.2364,4.2363,4.2349,4.2306,4.2305,4.2281,4.2278,4.2265,0,4.2256,0,4.225,4.2241,4.2241,0,0,0,4.2348,4.2339,4.2328,4.2363,4.2349,4.2306,4.2325,4.2279,4.2275,4.226,4.2255,4.2253,4.2249,4.2241,4.224,4.218,4.218,0,0,4.2351,4.2355,4.2331,4.2325,4.2334,4.2326,4.2324,4.2277,4.2271,4.2255,4.2252,4.2248,4.224,4.224,4.218,4.218,0,0,0,4.2359,4.2357,4.2347,4.2327,4.232,4.2325,4.2322,4.2273,4.2269,4.2251,4.2247,4.224,4.2239,4.218,4.218,4.2176,0,0,0,4.236,4.2362,4.2348,4.235,4.2321,4.2296,4.2319,4.2272,4.2267,4.2248,4.224,4.2239,4.2181,4.218,4.2176,4.2172,0,0,0,4.2367,4.2363,4.2357,4.235,4.2332,4.2297,4.2291,4.2271,4.2265,4.2241,4.2239,4.2181,4.218,4.2177,4.2173,4.2159,0,0,0,4.2374,4.2351,4.2357,4.2329,4.2333,4.2295,4.2291,4.2262,4.2241,4.224,4.2181,4.218,4.2177,4.2173,4.2159,4.2148,4.2144,0,0,4.2347,4.2347,4.2331,4.2335,4.2299,4.2302,4.2263,4.2238,4.2229,4.2196,4.2195,4.2176,4.2173,4.2159,4.2118,4.2114,0,0,0,4.2324,4.2312,4.2301,4.2283,4.2266,4.225,4.2231,4.2221,4.2194,4.2214,4.2167,4.2164,4.2156,4.215,4.2147,4.214,4.2178,4.2178,4.2178,4.2291,4.2285,4.2257,4.2246,4.2228,4.221,4.2195,4.2179,4.2175,4.2164,4.2154,4.213,4.2124,4.2122,4.2114,4.2147,4.2147,4.2147,4.2147,4.225,4.2233,4.2232,4.2205,4.2198,4.2174,4.2156,4.2154,4.213,4.2137,4.2129,4.2137,4.2118,4.2111,4.2147,4.2147,4.2147,4.2147,4.2147,4.2228,4.2219,4.2211,4.2186,4.2167,4.2156,4.2134,4.2127,4.212,4.2113,4.2102,4.2102,4.2101,4.2108,4.2108,4.2108,4.2108,4.2108,4.2108,4.2209,4.22,4.2184,4.2165,4.2154,4.2138,4.2121,4.2109,4.2093,4.209,4.209,4.2087,4.2118,4.2126,4.2107,4.2107,4.2107,4.2107,4.2107,4.2171,4.2179,4.2154,4.2143,4.2122,4.2104,4.2097,4.2073,4.2062,4.2051,4.2051,4.2075,4.2074,4.2076,4.2083,4.2053,4.2053,4.2053,4.2053,4.2152,4.2152,4.2127,4.211,4.2093,4.2085,4.2055,4.2042,4.2029,4.2021,4.2025,4.2033,4.2035,4.2033,4.2036,4.2042,4.2002,4.2002,4.2002,4.2129,4.2127,4.2105,4.2095,4.2078,4.2064,4.2036,4.2015,4.2001,4.2,4.2015,4.2017,4.2031,4.2035,4.2033,4.2038,4.2049,0,0]}]]